EW7007 Weather Reports


time (UTC)temp
F
wind
direction
speed
knots
gust
knots
rain 1hr
in
rain 24hr
in
rain mn
in
humidity
%
barometer
mb
20260906190923 87 144 0.9 2.6 0.00 0.00 0.00 64 1011.7
20260906190423 87 144 0.9 4.3 0.00 0.00 0.00 64 1011.6
20260906185924 87 146 0.9 4.3 0.00 0.00 0.00 64 1011.7
20260906184923 87 221 0.0 0.9 0.00 0.00 0.00 65 1012.0
20260906184426 87 221 0.0 0.0 0.00 0.00 0.00 63 1012.1
20260906183923 87 221 0.0 2.6 0.00 0.00 0.00 63 1012.2
20260906183423 87 221 0.0 1.7 0.00 0.00 0.00 63 1012.2
20260906182923 87 221 0.0 0.9 0.00 0.00 0.00 64 1012.2
20260906182423 87 221 0.0 1.7 0.00 0.00 0.00 63 1012.3
20260906181922 87 221 0.9 2.6 0.00 0.00 0.00 63 1012.4
20260906181425 87 221 1.7 2.6 0.00 0.00 0.00 63 1012.5
20260906180922 87 220 0.9 2.6 0.00 0.00 0.00 63 1012.4
20260906180423 87 220 2.6 4.3 0.00 0.00 0.00 64 1012.6
20260906175924 87 174 1.7 4.3 0.00 0.00 0.00 63 1012.7
20260906175423 86 172 0.0 2.6 0.00 0.00 0.00 63 1012.6
20260906174923 87 172 2.6 6.1 0.00 0.00 0.00 62 1012.6
20260906174426 87 185 0.0 2.6 0.00 0.00 0.00 63 1012.6
20260906173923 86 185 1.7 4.3 0.00 0.00 0.00 63 1012.7
20260906173423 86 96 0.9 5.2 0.00 0.00 0.00 64 1012.7
20260906172923 86 130 2.6 5.2 0.00 0.00 0.00 64 1012.7
20260906172423 85 147 0.0 5.2 0.00 0.00 0.00 64 1012.7
20260906171923 85 196 0.9 2.6 0.00 0.00 0.00 64 1012.9
20260906171423 85 208 0.9 2.6 0.00 0.00 0.00 65 1013.1
20260906170423 86 224 0.9 2.6 0.00 0.00 0.00 65 1013.2
20260906165925 86 229 1.7 4.3 0.00 0.00 0.00 64 1013.2
20260906165423 86 218 1.7 2.6 0.00 0.00 0.00 63 1013.3
20260906164923 86 217 1.7 4.3 0.00 0.00 0.00 63 1013.3
20260906164423 86 179 1.7 4.3 0.00 0.00 0.00 63 1013.2
20260906163923 86 126 0.9 4.3 0.00 0.00 0.00 64 1013.1
20260906163423 85 220 1.7 2.6 0.00 0.00 0.00 64 1013.2
20260906162423 84 221 0.9 2.6 0.00 0.00 0.00 65 1013.3
20260906161923 84 221 0.9 2.6 0.00 0.00 0.00 65 1013.3
20260906161423 85 224 0.9 2.6 0.00 0.00 0.00 63 1013.3
20260906155923 85 224 0.9 2.6 0.00 0.00 0.00 64 1013.4
20260906154923 85 224 0.0 0.0 0.00 0.00 0.00 65 1013.4
20260906154423 85 224 0.0 0.0 0.00 0.00 0.00 67 1013.5
20260906153924 84 224 0.0 0.0 0.00 0.00 0.00 66 1013.6
20260906153423 84 224 0.0 0.0 0.00 0.00 0.00 68 1013.5
20260906152925 84 224 0.0 0.0 0.00 0.00 0.00 67 1013.4
20260906152423 83 224 0.0 0.9 0.00 0.00 0.00 67 1013.4
20260906151923 83 224 0.9 2.6 0.00 0.00 0.00 69 1013.4
20260906151425 82 224 0.9 2.6 0.00 0.00 0.00 70 1013.2
20260906150923 82 209 0.0 2.6 0.00 0.00 0.00 71 1013.3
20260906150423 82 205 1.7 2.6 0.00 0.00 0.00 72 1013.4
20260906145925 81 203 0.9 2.6 0.00 0.00 0.00 72 1013.4
20260906145423 81 202 0.9 1.7 0.00 0.00 0.00 73 1013.2
20260906144923 81 203 0.9 2.6 0.00 0.00 0.00 73 1013.3
20260906144424 81 203 1.7 4.3 0.00 0.00 0.00 74 1013.3
20260906143922 81 218 0.9 5.2 0.00 0.00 0.00 75 1013.3
20260906143423 80 198 0.0 0.9 0.00 0.00 0.00 76 1013.2
20260906142925 80 198 0.0 0.0 0.00 0.00 0.00 76 1013.3
20260906142423 80 198 0.0 0.0 0.00 0.00 0.00 77 1013.4
20260906141923 80 198 0.0 0.0 0.00 0.00 0.00 77 1013.4
20260906141425 80 198 0.0 2.6 0.00 0.00 0.00 77 1013.5
20260906140923 80 205 0.0 2.6 0.00 0.00 0.00 77 1013.2
20260906140422 80 207 1.7 2.6 0.00 0.00 0.00 77 1013.0
20260906135925 80 118 0.9 2.6 0.00 0.00 0.00 78 1012.7
20260906135423 79 117 0.9 2.6 0.00 0.00 0.00 78 1012.7
20260906134923 79 119 0.9 2.6 0.00 0.00 0.00 78 1012.7
20260906134424 79 119 0.9 4.3 0.00 0.00 0.00 78 1012.8
20260906133423 79 118 0.9 4.3 0.00 0.00 0.00 79 1012.8
20260906132925 79 116 1.7 5.2 0.00 0.00 0.00 79 1012.9
20260906132423 78 156 0.9 4.3 0.00 0.00 0.00 79 1012.9
20260906131923 78 156 0.0 5.2 0.00 0.00 0.00 79 1012.8
20260906131423 78 157 1.7 4.3 0.00 0.00 0.00 79 1012.8
20260906130923 78 153 1.7 4.3 0.00 0.00 0.00 80 1012.8
20260906125923 78 153 0.0 4.3 0.00 0.00 0.00 80 1012.7
20260906125423 78 153 1.7 4.3 0.00 0.00 0.00 80 1012.7
20260906124923 78 153 1.7 5.2 0.00 0.00 0.00 80 1012.6
20260906124425 78 148 1.7 5.2 0.00 0.00 0.00 80 1012.5
20260906123923 78 144 1.7 6.1 0.00 0.00 0.00 79 1012.4
20260906123423 78 156 0.9 4.3 0.00 0.00 0.00 79 1012.4
20260906122423 78 157 0.9 2.6 0.00 0.00 0.00 79 1012.2
20260906121923 78 157 0.0 0.0 0.00 0.00 0.00 79 1012.2
20260906121433 78 0 0.0 0.0 0.00 0.00 0.00 78 1012.1
20260906120922 78 157 0.0 1.7 0.00 0.00 0.00 78 1012.1
20260906120421 78 157 0.0 0.9 0.00 0.00 0.00 78 1011.9
20260906115923 78 157 0.0 1.7 0.00 0.00 0.00 77 1011.9
20260906115422 79 157 0.0 0.9 0.00 0.00 0.00 77 1011.8
20260906114921 79 157 0.0 1.7 0.00 0.00 0.00 77 1011.7
20260906114421 79 157 0.9 2.6 0.00 0.00 0.00 76 1011.7
20260906113421 79 157 0.0 2.6 0.00 0.00 0.00 76 1011.7
20260906112926 79 157 0.9 2.6 0.00 0.00 0.00 76 1011.7
20260906112421 79 157 1.7 5.2 0.00 0.00 0.00 76 1011.6
20260906111921 79 157 0.9 5.2 0.00 0.00 0.00 76 1011.6
20260906110922 79 163 0.9 5.2 0.00 0.00 0.00 76 1011.6
20260906110421 79 165 1.7 5.2 0.00 0.00 0.00 76 1011.6
20260906105926 79 146 0.0 4.3 0.00 0.00 0.00 76 1011.5
20260906105421 79 146 1.7 5.2 0.00 0.00 0.00 75 1011.5
20260906104922 79 146 1.7 6.1 0.00 0.00 0.00 75 1011.6
20260906103921 80 129 1.7 5.2 0.00 0.00 0.00 75 1011.6
20260906103421 80 153 1.7 5.2 0.00 0.00 0.00 75 1011.6
20260906102923 80 155 0.9 2.6 0.00 0.00 0.00 75 1011.6
20260906101921 80 156 1.7 5.2 0.00 0.00 0.00 75 1011.5
20260906101426 80 154 2.6 6.1 0.00 0.00 0.00 75 1011.5
20260906100921 80 128 1.7 6.1 0.00 0.00 0.00 75 1011.4
20260906100421 79 139 2.6 5.2 0.00 0.00 0.00 75 1011.4
20260906095924 79 158 1.7 4.3 0.00 0.00 0.00 76 1011.4
20260906093922 79 81 1.7 5.2 0.00 0.00 0.00 77 1011.3
20260906093421 79 108 1.7 5.2 0.00 0.00 0.00 77 1011.4
20260906092926 79 124 0.9 5.2 0.00 0.00 0.00 77 1011.5
20260906092421 79 135 1.7 5.2 0.00 0.00 0.00 77 1011.5
20260906091921 79 140 2.6 5.2 0.00 0.00 0.00 77 1011.4
20260906091423 79 115 1.7 6.1 0.00 0.00 0.00 77 1011.5
20260906090921 79 132 0.9 6.1 0.00 0.00 0.00 77 1011.5
20260906090421 79 126 1.7 5.2 0.00 0.00 0.00 77 1011.5
20260906085924 79 136 3.5 7.0 0.00 0.00 0.00 77 1011.6
20260906085421 80 101 1.7 5.2 0.00 0.00 0.00 76 1011.6
20260906084426 80 112 2.6 6.1 0.00 0.00 0.00 76 1011.6
20260906083921 80 127 1.7 4.3 0.00 0.00 0.00 76 1011.5
20260906083421 80 103 0.9 4.3 0.00 0.00 0.00 76 1011.5
20260906082926 80 73 0.9 6.1 0.00 0.00 0.00 76 1011.5
20260906082421 80 132 2.6 7.0 0.00 0.00 0.00 76 1011.5
20260906081922 80 132 1.7 7.0 0.00 0.00 0.00 75 1011.5
20260906081423 80 118 3.5 7.8 0.00 0.00 0.00 76 1011.4
20260906080921 80 128 2.6 7.8 0.00 0.00 0.00 76 1011.3
20260906080421 80 136 2.6 7.0 0.00 0.00 0.00 76 1011.3
20260906075924 80 130 2.6 5.2 0.00 0.00 0.00 76 1011.4
20260906074921 80 125 1.7 6.1 0.00 0.00 0.00 76 1011.5
20260906073922 80 91 2.6 5.2 0.00 0.00 0.00 75 1011.4
20260906073421 80 117 1.7 6.1 0.00 0.00 0.00 74 1011.4
20260906072925 80 97 3.5 6.1 0.00 0.00 0.00 73 1011.3
20260906072421 81 107 2.6 6.1 0.00 0.00 0.00 73 1011.2
20260906071921 81 94 2.6 6.1 0.00 0.00 0.00 73 1011.2
20260906070921 81 128 1.7 6.1 0.00 0.00 0.00 73 1011.1
20260906065421 80 122 3.5 5.2 0.00 0.00 0.00 74 1011.4
20260906064921 80 91 2.6 6.1 0.00 0.00 0.00 75 1011.4
20260906064425 80 95 2.6 6.1 0.00 0.00 0.00 75 1011.4
20260906063921 80 112 2.6 6.1 0.00 0.00 0.00 75 1011.4
20260906063421 80 89 1.7 6.1 0.00 0.00 0.00 76 1011.4
20260906062921 80 103 2.6 7.0 0.00 0.00 0.00 76 1011.5
20260906062421 80 120 2.6 6.1 0.00 0.00 0.00 76 1011.4
20260906061921 80 93 1.7 6.1 0.00 0.00 0.00 76 1011.4
20260906061425 80 112 2.6 6.1 0.00 0.00 0.00 75 1011.4
20260906060921 80 94 1.7 4.3 0.00 0.00 0.00 75 1011.5
20260906060421 81 109 4.3 8.7 0.00 0.00 0.00 74 1011.6
20260906054921 81 121 1.7 5.2 0.00 0.00 0.00 73 1011.6
20260906054423 81 112 1.7 5.2 0.00 0.00 0.00 72 1011.6
20260906053921 81 98 1.7 5.2 0.00 0.00 0.00 72 1011.6
20260906052923 81 69 1.7 7.0 0.00 0.00 0.00 72 1011.5
20260906052421 82 106 2.6 5.2 0.00 0.00 0.00 71 1011.6
20260906051921 82 117 1.7 5.2 0.00 0.00 0.00 71 1011.5
20260906051422 82 123 1.7 4.3 0.00 0.00 0.00 70 1011.5
20260906050921 82 123 0.9 2.6 0.00 0.00 0.00 70 1011.5
20260906050421 82 123 1.7 2.6 0.00 0.00 0.00 70 1011.6
20260906045421 83 123 0.9 4.3 0.00 0.00 0.00 69 1011.4
20260906044921 83 123 0.9 4.3 0.00 0.00 0.00 69 1011.3
20260906044425 83 125 1.7 4.3 0.00 0.00 0.00 69 1011.3
20260906043921 83 128 2.6 4.3 0.00 0.00 0.00 68 1011.3
20260906042923 84 130 0.9 4.3 0.00 0.00 0.00 68 1011.4
20260906042421 84 131 1.7 4.3 0.00 0.00 0.00 67 1011.3
20260906041422 85 131 0.0 2.6 0.00 0.00 0.00 65 1011.3
20260906035923 85 132 0.9 2.6 0.00 0.00 0.00 64 1011.2
20260906035421 85 132 0.0 1.7 0.00 0.00 0.00 63 1011.3
20260906034922 86 132 0.9 2.6 0.00 0.00 0.00 63 1011.3
20260906033921 86 131 0.9 2.6 0.00 0.00 0.00 61 1011.3
20260906033421 86 132 0.0 0.0 0.00 0.00 0.00 61 1011.2
20260906032923 87 132 0.0 1.7 0.00 0.00 0.00 61 1011.2
20260906032421 87 132 0.9 2.6 0.00 0.00 0.00 61 1011.2
20260906031921 87 132 0.0 4.3 0.00 0.00 0.00 60 1011.1
20260906031422 87 134 1.7 4.3 0.00 0.00 0.00 60 1011.1
20260906030921 87 151 0.9 4.3 0.00 0.00 0.00 61 1010.9
20260906025925 87 152 0.9 2.6 0.00 0.00 0.00 60 1010.6
20260906025421 87 147 1.7 4.3 0.00 0.00 0.00 61 1010.6
20260906024921 87 143 0.9 4.3 0.00 0.00 0.00 61 1010.6
20260906024425 87 143 0.9 4.3 0.00 0.00 0.00 61 1010.5
20260906023921 87 143 0.0 1.7 0.00 0.00 0.00 61 1010.4
20260906023421 87 143 1.7 5.2 0.00 0.00 0.00 61 1010.3
20260906022921 87 167 1.7 2.6 0.00 0.00 0.00 61 1010.3
20260906022421 88 167 1.7 2.6 0.00 0.00 0.00 61 1010.3
20260906021921 88 167 1.7 4.3 0.00 0.00 0.00 60 1010.2
20260906021423 88 182 0.0 1.7 0.00 0.00 0.00 59 1010.1
20260906020421 89 182 0.9 2.6 0.00 0.00 0.00 58 1010.0
20260906015925 89 182 0.0 0.0 0.00 0.00 0.00 57 1009.9
20260906015421 89 182 0.0 0.0 0.00 0.00 0.00 57 1009.8
20260906014922 90 182 0.0 0.0 0.00 0.00 0.00 56 1009.8
20260906014424 90 182 0.0 0.0 0.00 0.00 0.00 55 1009.8
20260906012421 91 182 0.0 0.0 0.00 0.00 0.00 54 1009.4
20260906011422 92 182 0.0 1.7 0.00 0.00 0.00 53 1009.2
20260906010921 92 182 0.0 0.9 0.00 0.00 0.00 52 1009.1
20260906010421 92 182 0.0 1.7 0.00 0.00 0.00 51 1009.1
20260906005922 92 182 0.0 2.6 0.00 0.00 0.00 51 1009.1
20260906005421 93 182 0.0 2.6 0.00 0.00 0.00 51 1009.0
20260906004921 93 182 0.9 2.6 0.00 0.00 0.00 51 1008.9
20260906003421 94 182 0.0 2.6 0.00 0.00 0.00 50 1009.1
20260906002421 95 183 0.0 0.9 0.00 0.00 0.00 49 1009.2
20260906001921 95 183 0.0 1.7 0.00 0.00 0.00 49 1009.2
20260906001423 95 183 0.9 2.6 0.00 0.00 0.00 48 1009.2
20260906000922 95 183 0.0 2.6 0.00 0.00 0.00 48 1009.3
20260905235923 96 183 0.9 2.6 0.00 0.00 0.00 47 1009.3
20260905234921 96 202 0.9 4.3 0.00 0.00 0.00 46 1009.2
20260905234421 96 194 2.6 6.1 0.00 0.00 0.00 46 1009.2
20260905233921 96 187 2.6 6.1 0.00 0.00 0.00 45 1009.1
20260905233421 96 205 1.7 4.3 0.00 0.00 0.00 47 1009.0
20260905232421 96 171 2.6 5.2 0.00 0.00 0.00 47 1008.8
20260905231921 96 173 2.6 5.2 0.00 0.00 0.00 47 1008.8
20260905231422 96 173 2.6 10.4 0.00 0.00 0.00 47 1008.8
20260905230921 96 139 2.6 7.0 0.00 0.00 0.00 47 1008.8
20260905230421 97 128 4.3 8.7 0.00 0.00 0.00 46 1008.8
20260905224921 97 135 2.6 7.0 0.00 0.00 0.00 47 1008.9
20260905223921 97 95 2.6 5.2 0.00 0.00 0.00 47 1008.9
20260905223421 97 122 2.6 6.1 0.00 0.00 0.00 47 1008.9
20260905222922 97 109 4.3 10.4 0.00 0.00 0.00 48 1008.9
20260905221922 97 117 1.7 10.4 0.00 0.00 0.00 47 1008.9
20260905220921 97 136 0.9 7.8 0.00 0.00 0.00 48 1008.8
20260905215921 97 161 4.3 10.4 0.00 0.00 0.00 48 1008.8
20260905215422 98 82 1.7 7.0 0.00 0.00 0.00 48 1008.8
20260905214422 97 115 1.7 7.8 0.00 0.00 0.00 48 1008.8
20260905213921 97 147 5.2 7.8 0.00 0.00 0.00 48 1008.8
20260905213421 97 110 4.3 10.4 0.00 0.00 0.00 49 1008.8
20260905212924 97 77 2.6 7.8 0.00 0.00 0.00 55 1009.0
20260905212421 96 53 2.6 6.1 0.00 0.00 0.00 56 1009.0
20260905211922 96 95 5.2 10.4 0.00 0.00 0.00 55 1009.1
20260905211422 96 87 4.3 11.3 0.00 0.00 0.00 56 1009.2
20260905210921 96 57 4.3 10.4 0.00 0.00 0.00 56 1009.4
20260905205924 96 71 4.3 12.2 0.00 0.00 0.00 55 1009.5
20260905205421 96 83 5.2 10.4 0.00 0.00 0.00 56 1009.6
20260905204921 95 60 5.2 11.3 0.00 0.00 0.00 56 1009.7
20260905204424 95 67 5.2 11.3 0.00 0.00 0.00 56 1009.8
20260905203922 95 52 4.3 10.4 0.00 0.00 0.00 58 1010.0
20260905203421 95 100 7.0 10.4 0.00 0.00 0.00 57 1010.0
20260905202924 95 72 5.2 10.4 0.00 0.00 0.00 57 1010.1
20260905202421 95 126 4.3 13.9 0.00 0.00 0.00 56 1010.2
20260905201921 95 39 6.1 12.2 0.00 0.00 0.00 55 1010.3
20260905200921 95 66 5.2 11.3 0.00 0.00 0.00 55 1010.5
20260905200421 95 29 5.2 10.4 0.00 0.00 0.00 54 1010.6
20260905195922 95 66 7.0 11.3 0.00 0.00 0.00 53 1010.6
20260905195421 95 74 4.3 10.4 0.00 0.00 0.00 54 1010.8
20260905194921 96 95 6.1 10.4 0.00 0.00 0.00 53 1010.8
20260905194424 96 54 4.3 7.0 0.00 0.00 0.00 53 1010.9
20260905193421 96 70 6.1 10.4 0.00 0.00 0.00 53 1011.2
20260905192921 96 61 1.7 12.2 0.00 0.00 0.00 54 1011.3
20260905191922 96 90 3.5 10.4 0.00 0.00 0.00 52 1011.5
20260905191424 96 74 5.2 13.0 0.00 0.00 0.00 51 1011.5